Home > Weather > Theni > Past weeks

Flag for India Past Weather in Theni, Tamil Nadu, India — Yesterday and Last 2 Weeks

Now
82 °F

Passing clouds.


Feels Like: 86 °F
Forecast: 74 / 89 °F
Wind: 3 mph from North

Location: Coimbatore / Peelamedu

Current Time: Jul 25, 2016 at 11:53:58 AM

Latest Report: Jul 25, 2016 at 11:30 AM


Visibility: 4 mi

Pressure: 29.80 "Hg

Humidity: 66%

Dew Point: 70 °F

Location of TheniLocation

Past Weather in Theni — Graph

°F

Theni Temperature Yesterday

Maximum temperature yesterday: 88 °F (at 1:30 PM)
Minimum temperature yesterday: 73 °F (at 12:30 AM)
Average temperature yesterday: 79 °F

High & Low Weather Summary for the Past Weeks

 TemperatureHumidityPressure
High91 °F (Jul 13, 1:30 PM)94% (Jul 14, 2:30 AM)29.95 "Hg (Jul 14, 2:30 AM)
Low72 °F (Jul 13, 5:30 AM)38% (Jul 22, 1:30 PM)29.71 "Hg (Jul 14, 3:00 PM)
Average80 °F73%29.82 "Hg
* Reported Jul 10 10:30 AM — Jul 25 10:30 AM, Theni, Weather by CustomWeather, © 2016

Note: Actual official high and low records may vary slightly from our data, if they occured in-between our weather recording intervals... More about our weather records

Advertising

Theni Weather History for the Previous 24 Hours

Scroll right to see more
 ConditionsComfort  
Time TempWeatherWind HumidityBarometerVisibility
10:30 AM
Mon, Jul 25
82 °FBroken clouds.6 mph66%29.83 "Hg3 mi
10:00 AM81 °FBroken clouds.5 mph70%29.83 "Hg3 mi
9:30 AM77 °FFog.5 mph83%29.83 "Hg3 mi
9:00 AM75 °FFog.5 mph89%29.83 "Hg3 mi
8:30 AM75 °FFog.6 mph89%29.83 "Hg3 mi
8:00 AM75 °FFog.7 mph89%29.83 "Hg3 mi
7:30 AM73 °FFog.5 mph94%29.83 "Hg3 mi
7:00 AM73 °FBroken clouds.5 mph94%29.83 "Hg4 mi
6:30 AM73 °FPartly cloudy.6 mph94%29.80 "Hg4 mi
6:00 AM73 °FPartly cloudy.6 mph94%29.80 "Hg4 mi
5:30 AM73 °FPartly cloudy.5 mph94%29.80 "Hg3 mi
5:00 AM73 °FFog.6 mph94%29.80 "Hg3 mi
4:30 AM73 °FFog.7 mph94%29.80 "Hg3 mi
4:00 AM73 °FPartly cloudy.7 mph94%29.80 "Hg4 mi
3:30 AM73 °FPartly cloudy.7 mph89%29.77 "Hg4 mi
3:00 AM73 °FPartly cloudy.6 mph89%29.77 "Hg4 mi
2:30 AM75 °FPartly cloudy.7 mph83%29.77 "Hg4 mi
1:30 AM75 °FPartly cloudy.6 mph83%29.80 "Hg4 mi
12:30 AM75 °FPassing clouds.6 mph83%29.83 "Hg4 mi
11:30 PM
Sun, Jul 24
75 °FPassing clouds.7 mph83%29.83 "Hg4 mi
11:00 PM75 °FPassing clouds.7 mph94%29.83 "Hg4 mi
10:30 PM75 °FPassing clouds.9 mph89%29.83 "Hg4 mi
10:00 PM75 °FPassing clouds.5 mph89%29.83 "Hg4 mi
9:30 PM75 °FPassing clouds.7 mph94%29.83 "Hg4 mi
9:00 PM77 °FPassing clouds.7 mph83%29.80 "Hg4 mi
8:30 PM77 °FPassing clouds.12 mph83%29.80 "Hg4 mi
8:00 PM77 °FPartly cloudy.12 mph89%29.80 "Hg4 mi
7:30 PM79 °FPartly cloudy.8 mph79%29.77 "Hg4 mi
7:00 PM79 °FBroken clouds.12 mph74%29.77 "Hg4 mi
6:30 PM81 °FBroken clouds.12 mph70%29.74 "Hg4 mi
6:00 PM81 °FBroken clouds.8 mph70%29.74 "Hg4 mi
5:30 PM82 °FBroken clouds.9 mph66%29.71 "Hg4 mi
5:00 PM82 °FBroken clouds.14 mph70%29.71 "Hg4 mi
4:30 PM84 °FBroken clouds.14 mph66%29.74 "Hg4 mi
4:00 PM84 °FScattered clouds.13 mph66%29.71 "Hg4 mi
3:30 PM86 °FScattered clouds.12 mph62%29.71 "Hg4 mi
3:00 PM86 °FScattered clouds.12 mph59%29.71 "Hg4 mi
2:30 PM88 °FScattered clouds.10 mph59%29.74 "Hg4 mi
2:00 PM88 °FScattered clouds.12 mph59%29.74 "Hg5 mi
1:30 PM88 °FScattered clouds.13 mph59%29.74 "Hg5 mi
12:30 PM86 °FScattered clouds.14 mph59%29.77 "Hg5 mi
12:00 PM86 °FPartly sunny.9 mph62%29.80 "Hg4 mi
11:30 AM84 °FPartly sunny.9 mph62%29.80 "Hg4 mi
11:00 AM82 °FPartly sunny.8 mph66%29.83 "Hg4 mi
Weather by CustomWeather, © 2016

See weather overviewHow to use our weather pages